Location: Unspecified
(17.6330°N, 0.0000°E)
Time: 05:02:36
(UTC+00:00)

A-11 Canister half - Pass Details

Date: 23 June 2019
Orbit: 1514 x 1685 km, 47.2° (Epoch: 22 July)

Event Time Altitude Azimuth Distance (km) Brightness Sun altitude
Rises 06:48:28 0° 196° (SSW) 4,922 11.3 17.2°
Reaches altitude 10° 06:52:07 10° 186° (S) 3,940 11.0 18.0°
Maximum altitude 07:00:46 32° 127° (SE) 2,578 10.9 20.0°
Drops below altitude 10° 07:09:17 10° 68° (ENE) 3,905 13.3 21.9°
Sets 07:12:50 0° 59° (ENE) 4,873 13.0 22.7°
